Regional Weather Roundup
Issued by NWS

Home | Current Version | Previous Version | Graphics & Text | Print | Product List | Glossary On
Versions: 1 2 3 4 5 6 7 8 9 10 11 12 13 14 15 16 17 18 19 20 21 22 23 24 25 26 27 28 29 30 31 32 33 34 35 36 37 38 39 40 41 42 43 44 45 46 47 48 49 50
000
ASUS43 KMKX 071921
RWRWI

WISCONSIN REGIONAL WEATHER ROUNDUP
NATIONAL WEATHER SERVICE MILWAUKEE/SULLIVAN WI
200 PM CDT TUE JUL 07 2015

NOTE: "FAIR" INDICATES FEW OR NO CLOUDS BELOW 12,000 FEET WITH NO
SIGNIFICANT WEATHER AND/OR OBSTRUCTIONS TO VISIBILITY.

WIZ001-002-006>008-014>016-023>028-072000-
NORTHWEST WISCONSIN

CITY           SKY/WX    TMP DP  RH WIND       PRES   REMARKS
SUPERIOR ARPT  MOSUNNY   69  48  46 W3        30.12F
ASHLAND        SUNNY     68  48  48 VRB5      30.13F
HAYWARD        MOSUNNY   66  43  43 E5        30.14S
SIREN          MOSUNNY   69  42  37 N8        30.14F
CUMBERLAND     PTSUNNY   64  45  48 NE7       30.13F
RICE LAKE      MOSUNNY   67  47  48 N8        30.14F
CHETEK         PTSUNNY   66  48  50 N5        30.12F
LADYSMITH      MOSUNNY   67  47  47 N15       30.14S
EAU CLAIRE     MOSUNNY   69  47  45 NE9       30.12S
MENOMONIE      PTSUNNY   68  48  49 NW6       30.13S
NEW RICHMOND   PTSUNNY   66  47  50 N9        30.15S
OSCEOLA        PTSUNNY   68  48  49 N9        30.17F
$$

WIZ003>005-009-010-017-018-072000-
NORTH CENTRAL WISCONSIN

CITY           SKY/WX    TMP DP  RH WIND       PRES   REMARKS
MANITOWISH WTR MOSUNNY   62  45  52 N8G16     30.12S
ARBOR VITAE    MOSUNNY   64  45  50 N6        30.11F
WOODRUFF       MOSUNNY   64  45  50 N6        30.11F
RHINELANDER    CLOUDY    63  44  50 VRB6      30.11S
EAGLE RIVER    PTSUNNY   63  43  48 N9G16     30.10S
LAND O LAKES   PTSUNNY   63  43  48 N9G18     30.12S
PHILLIPS       MOSUNNY   64  46  51 N10G17    30.11F
TOMAHAWK       PTSUNNY   62  46  55 N6        30.11F
MEDFORD        PTSUNNY   64  46  52 N8        30.11S
MERRILL        MOSUNNY   66  48  51 N7        30.10S
$$

WIZ029-030-035-036-043>047-072000-
CENTRAL WISCONSIN

CITY           SKY/WX    TMP DP  RH WIND       PRES   REMARKS
WAUSAU         MOSUNNY   67  45  45 N9G20     30.07F
MOSINEE        PTSUNNY   64  46  52 N10       30.10F
MARSHFIELD     PTSUNNY   66  46  48 N7G16     30.10F
STEVENS POINT  MOSUNNY   65  45  49 N10G21    30.09F
WAUPACA        PTSUNNY   71  45  39 N8        30.08S
WAUTOMA        MOSUNNY   67  46  46 N10       30.08F
WISC RAPIDS    MOSUNNY   68  45  43 N12       30.10F
CAMP DOUGLAS   PTSUNNY   66  52  59 N10       30.10S
$$

WIZ011>013-019>022-031-037>040-048>050-072000-
NORTHEAST WISCONSIN

CITY           SKY/WX    TMP DP  RH WIND       PRES   REMARKS
ANTIGO         CLOUDY    63  49  59 N9G16     30.09S
SHAWANO        CLOUDY    68  48  47 N14       30.06F
OCONTO         CLOUDY    66  49  53 N8G21     30.05S
STURGEON BAY   MOSUNNY   63  48  59 N16       30.07S
GREEN BAY      PTSUNNY   69  49  48 N9        30.05F
MANITOWOC      PTSUNNY   65  48  54 MISG      30.05S
APPLETON       PTSUNNY   64  45  48 NW12G18   30.07S
CLINTONVILLE   CLOUDY    68  45  42 N7        30.06S
OSHKOSH        PTSUNNY   67  47  48 N16       30.06S
$$

WIZ032>034-041-042-053>061-072000-
SOUTHWEST WISCONSIN

CITY           SKY/WX    TMP DP  RH WIND       PRES   REMARKS
LA CROSSE      PTSUNNY   69  46  43 NE10      30.11F
SPARTA         PTSUNNY   67  44  44 N7        30.12S
VIROQUA        CLOUDY    64  48  55 N12       30.11S
BOSCOBEL       CLOUDY    69  49  48 N6        30.09S
PRAIRIE DU CHI MOSUNNY   66  46  47 N9G20     30.09S
PLATTEVILLE    CLOUDY    68  51  55 N13       30.08S
$$

WIZ056-057-062-063-064-067-068-072000-
SOUTH CENTRAL WISCONSIN

CITY           SKY/WX    TMP DP  RH WIND       PRES   REMARKS
REEDSBURG      CLOUDY    65  49  55 N13       30.08S
BARABOO/DELLS  CLOUDY    67  46  46 N3        30.08S
LONE ROCK      PTSUNNY   68  48  48 N13G18    30.08S
MINERAL POINT  CLOUDY    68  50  52 NW12      30.09R
MADISON        PTSUNNY   68  52  56 N12G18    30.06R
MIDDLETON      CLOUDY    67  50  53 N6G16     30.07S
WATERTOWN      CLOUDY    65  52  62 N10G16    30.05S
MONROE         CLOUDY    66  54  63 N10       30.06S
JANESVILLE     PTSUNNY   70  52  52 N13       30.04
$$

WIZ051-052-058>065-066-070>072-072000-
SOUTHEAST WISCONSIN

CITY           SKY/WX    TMP DP  RH WIND       PRES   REMARKS
MILWAUKEE      MOSUNNY   65  49  56 N15       30.04R
WAUKESHA       PTSUNNY   66  48  52 N12G18    30.05S
MILWAUKEE/TIMM CLOUDY    66  48  52 N8        30.05R
RACINE         SUNNY     66  47  50 N20G26    30.06R
BURLINGTON     PTSUNNY   66  49  54 N9G18     30.03S
KENOSHA        MOSUNNY   68  52  56 NE14G22   30.04R
FOND DU LAC    PTSUNNY   67  49  52 N12       30.06S
SHEBOYGAN      CLOUDY    65  49  56 N10       30.04S
WEST BEND      CLOUDY    64  46  52 NW12      30.05R
JUNEAU         PTSUNNY   66  50  56 N12G18    30.07S
$$

LSZ147-162-072000-
LAKE SUPERIOR

STATION/POSITION TIME  TEMP    WIND        PRES    WAVE
                       AIR SEA DIR/SP/G            HT/PER
                 (UTC) (F)     (DEG/KT/KT) (MB)    (FT/S)
W MID LAKE BUOY  1850   46 39  220/  8/  8 1019.6F   0
DEVILS ISLAND    1900   62     220/  6/  8 1020.0F
PORT WING        1840   66     310/  2/  3 1020.3F
SAXON HARBOR     1800   62        CALM     1020.7
$$

LMZ867-665-643>646-072000-
LAKE MICHIGAN

STATION/POSITION TIME  TEMP    WIND        PRES    WAVE
                       AIR SEA DIR/SP/G            HT/PER
                 (UTC) (F)     (DEG/KT/KT) (MB)    (FT/S)
CHAMBERS ISLAND  1800   63     330/ 11/ 15 1017.6R
S GREEN BAY BUOY 1900   64 68  360/ 14/ 17 1018.7
N MID LAKE BUOY  1850   56 53  310/ 12/ 14 1016.7R   2/ 3
NORTHPORT PIER   1800   60     340/ 16/ 23 1017.3R
SISTER BAY       1814   63     360/ 20/ 24   N/A
ALGOMA LAKESHORE 1841          330/ 15/ 20   N/A
KEWAUNEE LAKESHO 1900   62      10/  4/ 12 1016.8S
SHEBOYGAN LAKESH 1900   57      40/ 13/ 14 1017.8R
PORT WASHINGTON  1840   61      50/ 12/ 15 1017.9R
ATWATER BUOY     1900   59 59   30/ 14/ 19 1018.4R
MILWAUKEE LAKESH 1900   58      30/ 14/ 16   N/A
KENOSHA   LAKESH 1900   59      20/ 14/ 19 1016.9R
$$

TC  - TEMPERATURE IN CELSIUS
VSB - VISIBILITY IN STATUTE MILES
WCI - WIND CHILL INDEX
HX  - HEAT INDEX



USA.gov is the U.S. government's official web portal to all federal, state and local government web resources and services.